Change the Weather History Date:

Thursday, November 1, 2012

  Actual Average Record
Temperature  
Mean Temperature -3 °F -  
Max Temperature 10 °F 5 °F 33 °F (1970)
Min Temperature -16 °F -14 °F -27 °F (1989)
Degree Days  
Heating Degree Days 68    
Moisture  
Dew Point -9 °F    
Average Humidity 72    
Maximum Humidity 100    
Minimum Humidity 27    
Precipitation  
Precipitation 0.00 in - - ()
Sea Level Pressure  
Sea Level Pressure 30.10 in    
Wind  
Wind Speed 3 mph (ENE)    
Max Wind Speed 9 mph    
Max Gust Speed -    
Visibility 10 miles    
Events      
Averages and records for this station are not official NWS values.
T = Trace of Precipitation, MM = Missing Value Source: NWS Daily Summary

Daily Weather History Graph

Daily Weather History Graph

Search for Another Location

Airport or City:

Trip Planner

Search our weather history database for the weather conditions in past years. The results will help you decide how hot, cold, wet, or windy it might be!

Date:

Astronomy

Nov. 01, 2012 Rise Set
Actual Time 9:57 AM AKDT 4:53 PM AKDT
Civil Twilight 8:51 AM AKDT 5:59 PM AKDT
Nautical Twilight 7:43 AM AKDT 7:06 PM AKDT
Astronomical Twilight 6:38 AM AKDT 8:11 PM AKDT
Moon 5:08 PM AKDT (11/1) 2:26 PM AKDT (11/1)
Length of Visible Light 9h 08m
Length of Day
6h 55m
Waning Gibbous, 92% of the Moon is Illuminated
Nov 1
Waning Gibbous
Nov 6
Last Quarter
Nov 13
New
Nov 20
First Quarter
Nov 28
Full

Hourly Weather History & Observations

Time (AKDT) Temp. Windchill Dew Point Humidity Pressure Visibility Wind Dir Wind Speed Gust Speed Precip Events Conditions
12:16 AM 10.4 °F -2.4 °F 1.4 °F 67% 30.15 in 10.0 mi NE 9.2 mph - N/A   Clear
12:36 AM 8.6 °F -1.3 °F -4.0 °F 57% 30.15 in 10.0 mi East 5.8 mph - N/A   Clear
12:56 AM 10.4 °F -1.5 °F 6.8 °F 85% 30.15 in 10.0 mi East 8.1 mph - N/A   Clear
1:16 AM 6.8 °F -2.0 °F -14.8 °F 37% 30.15 in 10.0 mi East 4.6 mph - N/A   Clear
1:36 AM 5.0 °F -5.6 °F -0.4 °F 78% 30.15 in 10.0 mi WSW 5.8 mph - N/A   Clear
1:56 AM 3.2 °F -6.2 °F -2.2 °F 78% 30.15 in 10.0 mi SE 4.6 mph - N/A   Clear
2:16 AM 8.6 °F -3.7 °F -9.4 °F 44% 30.15 in 10.0 mi NNE 8.1 mph - N/A   Clear
2:36 AM 6.8 °F -3.5 °F -2.2 °F 67% 30.15 in 10.0 mi ENE 5.8 mph - N/A   Clear
2:56 AM 5.0 °F -4.1 °F -0.4 °F 78% 30.15 in 10.0 mi ENE 4.6 mph - N/A   Clear
3:16 AM 5.0 °F -5.6 °F -9.4 °F 52% 30.15 in 10.0 mi ENE 5.8 mph - N/A   Clear
3:36 AM 3.2 °F -9.1 °F -2.2 °F 78% 30.16 in 10.0 mi ENE 6.9 mph - N/A   Clear
3:56 AM 5.0 °F -8.1 °F -7.6 °F 56% 30.16 in 10.0 mi ENE 8.1 mph - N/A   Clear
4:36 AM 3.2 °F -6.2 °F -4.0 °F 72% 30.16 in 10.0 mi NE 4.6 mph - N/A   Clear
4:56 AM 1.4 °F - -5.8 °F 72% 30.15 in 10.0 mi Calm Calm - N/A   Clear
5:16 AM 3.2 °F - -0.4 °F 85% 30.15 in 10.0 mi Calm Calm - N/A   Clear
5:36 AM 3.2 °F - -9.4 °F 56% 30.15 in 10.0 mi Calm Calm - N/A   Clear
5:56 AM 3.2 °F - -11.2 °F 51% 30.15 in 10.0 mi Calm Calm - N/A   Clear
6:16 AM 3.2 °F -4.2 °F 1.4 °F 92% 30.15 in 10.0 mi East 3.5 mph - N/A   Clear
6:36 AM -0.4 °F -12.0 °F -16.6 °F 46% 30.15 in 10.0 mi East 5.8 mph - N/A   Clear
6:56 AM 1.4 °F - - N/A% 30.15 in 10.0 mi Calm Calm - N/A   Clear
7:16 AM -0.4 °F -10.4 °F -27.4 °F 27% 30.14 in 10.0 mi East 4.6 mph - N/A   Clear
7:36 AM -0.4 °F -10.4 °F -2.2 °F 92% 30.14 in 10.0 mi NE 4.6 mph - N/A   Clear
7:56 AM -2.2 °F -15.6 °F -9.4 °F 71% 30.14 in 10.0 mi ENE 6.9 mph - N/A   Clear
8:16 AM -5.8 °F - -13.0 °F 71% 30.14 in 10.0 mi Calm Calm - N/A   Clear
8:36 AM -0.4 °F - -0.4 °F 100% 30.15 in 10.0 mi Calm Calm - N/A   Clear
9:16 AM -0.4 °F - -0.4 °F 100% 30.15 in 10.0 mi Calm Calm - N/A   Clear
9:36 AM -2.2 °F - -16.6 °F 50% 30.15 in 10.0 mi Calm Calm - N/A   Clear
9:56 AM -5.8 °F - -5.8 °F 100% 30.15 in 10.0 mi Calm Calm - N/A   Clear
10:16 AM -5.8 °F - -16.6 °F 60% 30.15 in 10.0 mi Calm Calm - N/A   Clear
10:36 AM -5.8 °F - -9.4 °F 84% 30.15 in 10.0 mi Calm Calm - N/A   Clear
10:56 AM -2.2 °F - -2.2 °F 100% 30.14 in 10.0 mi Calm Calm - N/A   Clear
11:16 AM -4.0 °F - -22.0 °F 42% 30.15 in 10.0 mi Calm Calm - N/A   Clear
11:36 AM -4.0 °F - - N/A% 30.15 in 10.0 mi Calm Calm - N/A   Clear
11:56 AM -2.2 °F - -16.6 °F 50% 30.15 in 10.0 mi Calm Calm - N/A   Clear
12:16 PM -0.4 °F - -5.8 °F 78% 30.14 in 7.0 mi Calm Calm - N/A   Clear
12:36 PM -4.0 °F - -11.2 °F 71% 30.14 in 5.0 mi Calm Calm - N/A   Clear
12:56 PM -0.4 °F - -5.8 °F 78% 30.14 in 9.0 mi Calm Calm - N/A   Clear
1:16 PM -0.4 °F - -7.6 °F 72% 30.14 in 10.0 mi Calm Calm - N/A   Clear
1:36 PM -0.4 °F - -9.4 °F 66% 30.14 in 10.0 mi Calm Calm - N/A   Clear
1:56 PM 1.4 °F - -0.4 °F 92% 30.13 in 10.0 mi Calm Calm - N/A   Clear
2:16 PM -0.4 °F -8.3 °F - N/A% 30.12 in 10.0 mi East 3.5 mph - N/A   Clear
2:36 PM -0.4 °F - -2.2 °F 92% 30.11 in 10.0 mi Calm Calm - N/A   Clear
2:56 PM -0.4 °F - -9.4 °F 66% 30.11 in 10.0 mi Calm Calm - N/A   Clear
3:16 PM -0.4 °F - -4.0 °F 85% 30.11 in 10.0 mi Calm Calm - N/A   Clear
3:36 PM -0.4 °F - -9.4 °F 66% 30.10 in 10.0 mi Calm Calm - N/A   Clear
3:56 PM -0.4 °F - -5.8 °F 78% 30.09 in 10.0 mi Calm Calm - N/A   Clear
4:16 PM -0.4 °F - -7.6 °F 72% 30.08 in 10.0 mi Calm Calm - N/A   Clear
4:36 PM -0.4 °F - -7.6 °F 72% 30.08 in 10.0 mi Calm Calm - N/A   Clear
4:56 PM -0.4 °F -8.3 °F -5.8 °F 78% 30.07 in 10.0 mi North 3.5 mph - N/A   Clear
5:16 PM -2.2 °F - -11.2 °F 66% 30.07 in 10.0 mi Calm Calm - N/A   Clear
5:36 PM -4.0 °F -12.4 °F -9.4 °F 78% 30.06 in 7.0 mi NE 3.5 mph - N/A   Clear
5:56 PM -4.0 °F - -9.4 °F 78% 30.06 in 10.0 mi Calm Calm - N/A   Clear
6:16 PM -5.8 °F -16.7 °F -13.0 °F 71% 30.05 in 10.0 mi North 4.6 mph - N/A   Clear
6:36 PM -7.6 °F - -7.6 °F 100% 30.05 in 10.0 mi Calm Calm - N/A   Clear
6:56 PM -7.6 °F - -16.6 °F 65% 30.05 in 10.0 mi Calm Calm - N/A   Clear
7:16 PM -11.2 °F - -13.0 °F 92% 30.04 in 10.0 mi Calm Calm - N/A   Clear
7:36 PM -9.4 °F -18.6 °F -9.4 °F 100% 30.03 in 9.0 mi NNE 3.5 mph - N/A   Clear
7:56 PM -11.2 °F - -22.0 °F 59% 30.03 in 9.0 mi Calm Calm - N/A   Clear
8:16 PM -9.4 °F -18.6 °F - N/A% 30.02 in 10.0 mi NE 3.5 mph - N/A   Clear
8:36 PM -11.2 °F - -29.2 °F 41% 30.02 in 10.0 mi Calm Calm - N/A   Clear
8:56 PM -11.2 °F - - N/A% 30.01 in 10.0 mi Calm Calm - N/A   Clear
9:16 PM -11.2 °F -20.6 °F -29.2 °F 41% 30.01 in 10.0 mi North 3.5 mph - N/A   Clear
9:36 PM -13.0 °F - -23.8 °F 59% 30.00 in 10.0 mi Calm Calm - N/A   Clear
9:56 PM -16.6 °F - -16.6 °F 100% 30.00 in 10.0 mi Calm Calm - N/A   Clear
10:16 PM -16.6 °F - -20.2 °F 84% 29.99 in 10.0 mi Calm Calm - N/A   Clear
10:36 PM -13.0 °F - - N/A% 29.99 in 10.0 mi Calm Calm - N/A   Clear
10:56 PM -14.8 °F - - N/A% 29.98 in 10.0 mi Calm Calm - N/A   Clear
11:16 PM -14.8 °F - -14.8 °F 100% 29.98 in 10.0 mi Calm Calm - N/A   Clear
11:36 PM -14.8 °F - - N/A% 29.97 in 10.0 mi Calm Calm - N/A   Clear
11:56 PM -16.6 °F - - N/A% 29.97 in 10.0 mi Calm Calm - N/A   Clear